Location: �quirre
(50.4736°N, 2.2351°E)
Time: 23:59:36
(UTC+00:00)

Cosmos 1782 Rocket - Pass Details

Date: 07 August 2020
Orbit: 608 x 631 km, 82.5° (Epoch: 23 September)

Event Time Altitude Azimuth Distance (km) Brightness Sun altitude
Exits shadow 00:12:53 63° 112° (ESE) 687 3.6 -23.1°
Maximum altitude 00:13:04 64° 96° (E) 682 3.6 -23.1°
Drops below altitude 10° 00:17:23 10° 16° (NNE) 1,974 7.2 -23.0°
Sets 00:19:37 0° 13° (NNE) 2,882 8.4 -23.0°
